Time,TemperatureF,DewpointF,PressureIn,WindDirection,WindDirectionDegrees,WindSpeedMPH,WindSpeedGustMPH,Humidity,HourlyPrecipIn,Conditions,Clouds,dailyrainin,SoftwareType,DateUTC
2013-01-11 00:00:00,23.3,15.3,29.90,ESE,110,0.0,0.0,71,0.00,,,0.00,Wunderground v.1.12,2013-01-11 07:00:00,
2013-01-11 00:05:00,23.3,15.0,29.91,ESE,123,0.0,0.0,70,0.00,,,0.00,Wunderground v.1.12,2013-01-11 07:05:00,
2013-01-11 00:15:00,23.2,14.5,29.91,ENE,59,0.0,0.0,69,0.00,,,0.00,Wunderground v.1.12,2013-01-11 07:15:00,
2013-01-11 00:20:00,23.2,14.9,29.91,ESE,103,0.0,0.0,70,0.00,,,0.00,Wunderground v.1.12,2013-01-11 07:20:00,
2013-01-11 00:30:00,23.3,15.0,29.91,East,91,0.0,0.0,70,0.00,,,0.00,Wunderground v.1.12,2013-01-11 07:30:00,
2013-01-11 00:40:00,23.1,14.4,29.91,East,92,0.0,0.0,69,0.00,,,0.00,Wunderground v.1.12,2013-01-11 07:40:00,
2013-01-11 00:50:00,22.9,14.6,29.91,East,88,0.0,0.0,70,0.00,,,0.00,Wunderground v.1.12,2013-01-11 07:50:00,
2013-01-11 00:55:00,22.8,14.5,29.91,SSE,159,0.0,0.0,70,0.00,,,0.00,Wunderground v.1.12,2013-01-11 07:55:00,
2013-01-11 01:05:00,22.7,14.1,29.91,ENE,76,0.0,0.0,69,0.00,,,0.00,Wunderground v.1.12,2013-01-11 08:05:00,
2013-01-11 01:10:00,22.6,14.0,29.91,ENE,69,0.0,0.0,69,0.00,,,0.00,Wunderground v.1.12,2013-01-11 08:10:00,
2013-01-11 01:15:00,22.5,13.9,29.91,SE,143,0.0,0.0,69,0.00,,,0.00,Wunderground v.1.12,2013-01-11 08:15:00,
2013-01-11 01:20:00,22.6,13.6,29.91,East,86,0.0,0.0,68,0.00,,,0.00,Wunderground v.1.12,2013-01-11 08:20:00,
2013-01-11 01:30:00,22.3,14.0,29.91,East,82,0.0,0.0,70,0.00,,,0.00,Wunderground v.1.12,2013-01-11 08:30:00,
2013-01-11 01:40:00,22.4,14.1,29.92,ESE,122,0.0,0.0,70,0.00,,,0.00,Wunderground v.1.12,2013-01-11 08:40:00,
2013-01-11 01:45:00,22.3,13.7,29.92,ESE,119,0.0,0.0,69,0.00,,,0.00,Wunderground v.1.12,2013-01-11 08:45:00,
2013-01-11 01:50:00,22.2,13.9,29.92,SE,138,0.0,0.0,70,0.00,,,0.00,Wunderground v.1.12,2013-01-11 08:50:00,
2013-01-11 01:55:00,22.3,13.7,29.92,ESE,110,0.0,0.0,69,0.00,,,0.00,Wunderground v.1.12,2013-01-11 08:55:00,
2013-01-11 02:00:00,22.2,13.6,29.92,SE,143,0.0,0.0,69,0.00,,,0.00,Wunderground v.1.12,2013-01-11 09:00:00,
2013-01-11 02:10:00,22.2,13.6,29.93,ESE,110,0.0,0.0,69,0.00,,,0.00,Wunderground v.1.12,2013-01-11 09:10:00,
2013-01-11 02:15:00,22.0,13.7,29.92,East,92,0.0,0.0,70,0.00,,,0.00,Wunderground v.1.12,2013-01-11 09:15:00,
2013-01-11 02:20:00,22.1,13.5,29.93,ESE,113,0.0,0.0,69,0.00,,,0.00,Wunderground v.1.12,2013-01-11 09:20:00,
2013-01-11 02:25:00,22.0,13.4,29.93,SSW,206,0.0,0.0,69,0.00,,,0.00,Wunderground v.1.12,2013-01-11 09:25:00,
2013-01-11 02:30:00,21.9,13.0,29.93,East,92,0.0,0.0,68,0.00,,,0.00,Wunderground v.1.12,2013-01-11 09:30:00,
2013-01-11 02:40:00,22.1,13.8,29.93,ESE,102,0.0,0.0,70,0.00,,,0.00,Wunderground v.1.12,2013-01-11 09:40:00,
2013-01-11 02:45:00,22.0,13.4,29.93,East,79,0.0,0.0,69,0.00,,,0.00,Wunderground v.1.12,2013-01-11 09:45:00,
2013-01-11 02:50:00,21.8,13.2,29.93,South,187,0.0,0.0,69,0.00,,,0.00,Wunderground v.1.12,2013-01-11 09:50:00,
2013-01-11 03:00:00,21.6,12.7,29.94,ESE,115,0.0,0.0,68,0.00,,,0.00,Wunderground v.1.12,2013-01-11 10:00:00,
2013-01-11 03:05:00,21.7,13.1,29.94,East,79,0.0,0.0,69,0.00,,,0.00,Wunderground v.1.12,2013-01-11 10:05:00,
2013-01-11 03:15:00,21.6,13.0,29.94,ESE,106,0.0,0.0,69,0.00,,,0.00,Wunderground v.1.12,2013-01-11 10:15:00,
2013-01-11 03:20:00,21.5,12.9,29.94,ENE,69,0.0,0.0,69,0.00,,,0.00,Wunderground v.1.12,2013-01-11 10:20:00,
2013-01-11 03:25:00,21.4,12.8,29.94,SE,141,0.0,0.0,69,0.00,,,0.00,Wunderground v.1.12,2013-01-11 10:25:00,
2013-01-11 03:30:00,21.5,12.6,29.94,East,91,0.0,0.0,68,0.00,,,0.00,Wunderground v.1.12,2013-01-11 10:30:00,
2013-01-11 03:35:00,21.4,12.8,29.94,East,82,0.0,0.0,69,0.00,,,0.00,Wunderground v.1.12,2013-01-11 10:35:00,
2013-01-11 03:45:00,21.4,12.5,29.94,East,86,0.0,0.0,68,0.00,,,0.00,Wunderground v.1.12,2013-01-11 10:45:00,
2013-01-11 03:50:00,21.2,11.9,29.94,ENE,77,0.0,0.0,67,0.00,,,0.00,Wunderground v.1.12,2013-01-11 10:50:00,
2013-01-11 03:55:00,21.1,11.8,29.94,East,90,0.0,0.0,67,0.00,,,0.00,Wunderground v.1.12,2013-01-11 10:55:00,
2013-01-11 04:00:00,21.0,11.8,29.95,ESE,105,0.0,0.0,67,0.00,,,0.00,Wunderground v.1.12,2013-01-11 11:00:00,
2013-01-11 04:10:00,21.1,12.2,29.95,SE,139,2.0,2.0,68,0.00,,,0.00,Wunderground v.1.12,2013-01-11 11:10:00,
2013-01-11 04:15:00,21.0,11.8,29.95,East,89,0.0,0.0,67,0.00,,,0.00,Wunderground v.1.12,2013-01-11 11:15:00,
2013-01-11 04:20:00,21.0,12.1,29.95,SE,135,0.0,0.0,68,0.00,,,0.00,Wunderground v.1.12,2013-01-11 11:20:00,
2013-01-11 04:25:00,21.1,13.2,29.95,East,81,0.0,0.0,71,0.00,,,0.00,Wunderground v.1.12,2013-01-11 11:25:00,
2013-01-11 04:30:00,21.0,12.4,29.95,East,81,0.0,0.0,69,0.00,,,0.00,Wunderground v.1.12,2013-01-11 11:30:00,
2013-01-11 04:35:00,21.0,13.1,29.95,ESE,103,0.0,0.0,71,0.00,,,0.00,Wunderground v.1.12,2013-01-11 11:35:00,
2013-01-11 04:40:00,21.1,12.5,29.95,South,172,0.0,0.0,69,0.00,,,0.00,Wunderground v.1.12,2013-01-11 11:40:00,
2013-01-11 04:50:00,21.0,12.1,29.96,ENE,68,0.0,0.0,68,0.00,,,0.00,Wunderground v.1.12,2013-01-11 11:50:00,
2013-01-11 04:55:00,20.9,11.7,29.96,ESE,118,0.0,0.0,67,0.00,,,0.00,Wunderground v.1.12,2013-01-11 11:55:00,
2013-01-11 05:00:00,20.8,12.2,29.96,SE,130,0.0,0.0,69,0.00,,,0.00,Wunderground v.1.12,2013-01-11 12:00:00,
2013-01-11 05:05:00,20.9,12.0,29.96,South,184,0.0,0.0,68,0.00,,,0.00,Wunderground v.1.12,2013-01-11 12:05:00,
2013-01-11 05:10:00,20.9,12.0,29.96,East,90,0.0,0.0,68,0.00,,,0.00,Wunderground v.1.12,2013-01-11 12:10:00,
2013-01-11 05:20:00,20.7,11.5,29.96,NE,54,0.0,0.0,67,0.00,,,0.00,Wunderground v.1.12,2013-01-11 12:20:00,
2013-01-11 05:25:00,20.9,12.0,29.96,SSE,167,0.0,0.0,68,0.00,,,0.00,Wunderground v.1.12,2013-01-11 12:25:00,
2013-01-11 05:30:00,20.8,11.9,29.97,SSE,153,0.0,0.0,68,0.00,,,0.00,Wunderground v.1.12,2013-01-11 12:30:00,
2013-01-11 05:35:00,20.7,11.8,29.97,ESE,110,0.0,0.0,68,0.00,,,0.00,Wunderground v.1.12,2013-01-11 12:35:00,
2013-01-11 05:40:00,20.8,12.2,29.97,SE,139,0.0,0.0,69,0.00,,,0.00,Wunderground v.1.12,2013-01-11 12:40:00,
2013-01-11 05:45:00,20.8,12.6,29.97,SE,139,0.0,0.0,70,0.00,,,0.00,Wunderground v.1.12,2013-01-11 12:45:00,
2013-01-11 05:55:00,20.6,12.0,29.97,SE,130,0.0,0.0,69,0.00,,,0.00,Wunderground v.1.12,2013-01-11 12:55:00,
2013-01-11 06:00:00,20.7,12.5,29.97,SSE,152,0.0,0.0,70,0.00,,,0.00,Wunderground v.1.12,2013-01-11 13:00:00,
2013-01-11 06:05:00,20.7,11.8,29.98,South,185,0.0,0.0,68,0.00,,,0.00,Wunderground v.1.12,2013-01-11 13:05:00,
2013-01-11 06:10:00,20.5,11.3,29.98,South,173,0.0,0.0,67,0.00,,,0.00,Wunderground v.1.12,2013-01-11 13:10:00,
2013-01-11 06:15:00,20.5,11.6,29.98,SE,125,0.0,0.0,68,0.00,,,0.00,Wunderground v.1.12,2013-01-11 13:15:00,
2013-01-11 06:25:00,20.6,12.4,29.98,South,172,0.0,0.0,70,0.00,,,0.00,Wunderground v.1.12,2013-01-11 13:25:00,
2013-01-11 06:30:00,20.5,11.9,29.99,South,172,0.0,0.0,69,0.00,,,0.00,Wunderground v.1.12,2013-01-11 13:30:00,
2013-01-11 06:35:00,20.7,12.5,29.99,South,173,0.0,0.0,70,0.00,,,0.00,Wunderground v.1.12,2013-01-11 13:35:00,
2013-01-11 06:40:00,20.5,11.9,29.99,SE,129,0.0,0.0,69,0.00,,,0.00,Wunderground v.1.12,2013-01-11 13:40:00,
2013-01-11 06:45:00,20.4,11.5,29.99,East,90,0.0,0.0,68,0.00,,,0.00,Wunderground v.1.12,2013-01-11 13:45:00,
2013-01-11 06:55:00,20.1,12.2,30.00,ESE,102,0.0,0.0,71,0.00,,,0.00,Wunderground v.1.12,2013-01-11 13:55:00,
2013-01-11 07:00:00,20.3,12.1,30.00,ESE,103,0.0,0.0,70,0.00,,,0.00,Wunderground v.1.12,2013-01-11 14:00:00,
2013-01-11 07:05:00,20.3,12.1,30.00,SSE,164,0.0,0.0,70,0.00,,,0.00,Wunderground v.1.12,2013-01-11 14:05:00,
2013-01-11 07:10:00,20.4,12.2,30.01,SE,144,0.0,0.0,70,0.00,,,0.00,Wunderground v.1.12,2013-01-11 14:10:00,
2013-01-11 07:15:00,20.1,11.6,30.01,SE,144,0.0,0.0,69,0.00,,,0.00,Wunderground v.1.12,2013-01-11 14:15:00,
2013-01-11 07:20:00,20.4,12.2,30.01,SSW,200,0.0,0.0,70,0.00,,,0.00,Wunderground v.1.12,2013-01-11 14:20:00,
2013-01-11 07:30:00,20.4,11.8,30.02,South,175,0.0,0.0,69,0.00,,,0.00,Wunderground v.1.12,2013-01-11 14:30:00,
2013-01-11 07:35:00,20.2,11.7,30.03,SSE,160,0.0,0.0,69,0.00,,,0.00,Wunderground v.1.12,2013-01-11 14:35:00,
2013-01-11 07:40:00,20.0,12.1,30.03,SSW,192,0.0,0.0,71,0.00,,,0.00,Wunderground v.1.12,2013-01-11 14:40:00,
2013-01-11 07:45:00,20.1,11.2,30.03,East,87,0.0,0.0,68,0.00,,,0.00,Wunderground v.1.12,2013-01-11 14:45:00,
2013-01-11 07:50:00,20.0,12.1,30.03,ESE,117,0.0,0.0,71,0.00,,,0.00,Wunderground v.1.12,2013-01-11 14:50:00,
2013-01-11 07:55:00,20.0,11.5,30.04,ESE,117,0.0,0.0,69,0.00,,,0.00,Wunderground v.1.12,2013-01-11 14:55:00,
2013-01-11 08:00:00,20.0,12.7,30.04,ESE,117,0.0,0.0,73,0.00,,,0.00,Wunderground v.1.12,2013-01-11 15:00:00,
2013-01-11 08:05:00,19.9,12.6,30.04,ESE,117,0.0,0.0,73,0.00,,,0.00,Wunderground v.1.12,2013-01-11 15:05:00,
2013-01-11 08:10:00,19.9,12.3,30.04,ESE,117,0.0,0.0,72,0.00,,,0.00,Wunderground v.1.12,2013-01-11 15:10:00,
2013-01-11 08:15:00,19.9,12.3,30.04,SE,143,0.0,0.0,72,0.00,,,0.00,Wunderground v.1.12,2013-01-11 15:15:00,
2013-01-11 08:20:00,20.0,12.4,30.04,SE,143,0.0,0.0,72,0.00,,,0.00,Wunderground v.1.12,2013-01-11 15:20:00,
2013-01-11 08:30:00,20.1,12.8,30.04,SE,143,0.0,0.0,73,0.00,,,0.00,Wunderground v.1.12,2013-01-11 15:30:00,
2013-01-11 08:35:00,19.8,12.5,30.05,SE,143,0.0,0.0,73,0.00,,,0.00,Wunderground v.1.12,2013-01-11 15:35:00,
2013-01-11 08:40:00,19.9,12.6,30.05,SE,143,0.0,0.0,73,0.00,,,0.00,Wunderground v.1.12,2013-01-11 15:40:00,
2013-01-11 08:45:00,20.1,12.8,30.05,SSW,192,0.0,0.0,73,0.00,,,0.00,Wunderground v.1.12,2013-01-11 15:45:00,
2013-01-11 08:50:00,20.0,12.4,30.05,SSW,192,0.0,0.0,72,0.00,,,0.00,Wunderground v.1.12,2013-01-11 15:50:00,
2013-01-11 08:55:00,19.7,12.4,30.06,SSW,192,0.0,0.0,73,0.00,,,0.00,Wunderground v.1.12,2013-01-11 15:55:00,
2013-01-11 09:05:00,19.9,11.4,30.06,SW,215,0.0,0.0,69,0.00,,,0.00,Wunderground v.1.12,2013-01-11 16:05:00,
2013-01-11 09:10:00,19.7,11.5,30.06,South,176,0.0,0.0,70,0.00,,,0.00,Wunderground v.1.12,2013-01-11 16:10:00,
2013-01-11 09:15:00,19.7,11.8,30.06,South,177,0.0,0.0,71,0.00,,,0.00,Wunderground v.1.12,2013-01-11 16:15:00,
2013-01-11 09:20:00,19.8,11.9,30.06,South,177,0.0,0.0,71,0.00,,,0.00,Wunderground v.1.12,2013-01-11 16:20:00,
2013-01-11 09:25:00,20.0,12.4,30.07,South,177,0.0,0.0,72,0.00,,,0.00,Wunderground v.1.12,2013-01-11 16:25:00,
2013-01-11 09:35:00,20.0,12.1,30.07,South,188,0.0,0.0,71,0.00,,,0.00,Wunderground v.1.12,2013-01-11 16:35:00,
2013-01-11 09:40:00,19.8,12.2,30.08,South,181,0.0,0.0,72,0.00,,,0.00,Wunderground v.1.12,2013-01-11 16:40:00,
2013-01-11 09:45:00,20.0,12.7,30.08,South,180,0.0,0.0,73,0.00,,,0.00,Wunderground v.1.12,2013-01-11 16:45:00,
2013-01-11 09:50:00,20.1,12.2,30.08,South,180,0.0,0.0,71,0.00,,,0.00,Wunderground v.1.12,2013-01-11 16:50:00,
2013-01-11 09:55:00,20.1,12.2,30.08,South,181,0.0,0.0,71,0.00,,,0.00,Wunderground v.1.12,2013-01-11 16:55:00,
2013-01-11 10:00:00,20.0,11.5,30.08,South,181,0.0,0.0,69,0.00,,,0.00,Wunderground v.1.12,2013-01-11 17:00:00,
2013-01-11 10:05:00,20.1,11.6,30.08,SSE,153,0.0,0.0,69,0.00,,,0.00,Wunderground v.1.12,2013-01-11 17:05:00,
2013-01-11 10:10:00,20.1,11.6,30.08,SE,143,0.0,0.0,69,0.00,,,0.00,Wunderground v.1.12,2013-01-11 17:10:00,
2013-01-11 10:15:00,20.2,12.0,30.08,SE,142,0.0,0.0,70,0.00,,,0.00,Wunderground v.1.12,2013-01-11 17:15:00,
2013-01-11 10:20:00,20.4,11.5,30.08,SSE,151,0.0,0.0,68,0.00,,,0.00,Wunderground v.1.12,2013-01-11 17:20:00,
2013-01-11 10:25:00,20.5,11.6,30.09,SSE,150,0.0,0.0,68,0.00,,,0.00,Wunderground v.1.12,2013-01-11 17:25:00,
2013-01-11 10:30:00,20.7,11.8,30.09,SSE,163,0.0,0.0,68,0.00,,,0.00,Wunderground v.1.12,2013-01-11 17:30:00,
2013-01-11 10:40:00,20.9,13.0,30.09,SSE,159,0.0,0.0,71,0.00,,,0.00,Wunderground v.1.12,2013-01-11 17:40:00,
2013-01-11 10:45:00,21.0,11.8,30.09,SSE,168,0.0,0.0,67,0.00,,,0.00,Wunderground v.1.12,2013-01-11 17:45:00,
2013-01-11 10:50:00,21.2,12.9,30.09,SSE,167,0.0,0.0,70,0.00,,,0.00,Wunderground v.1.12,2013-01-11 17:50:00,
2013-01-11 10:55:00,21.3,12.4,30.09,SSE,167,0.0,0.0,68,0.00,,,0.00,Wunderground v.1.12,2013-01-11 17:55:00,
2013-01-11 11:00:00,21.3,11.7,30.09,SW,228,0.0,0.0,66,0.00,,,0.00,Wunderground v.1.12,2013-01-11 18:00:00,
2013-01-11 11:10:00,21.6,11.6,30.09,SSW,194,0.0,0.0,65,0.00,,,0.00,Wunderground v.1.12,2013-01-11 18:10:00,
2013-01-11 11:15:00,21.4,11.8,30.10,South,181,0.0,0.0,66,0.00,,,0.00,Wunderground v.1.12,2013-01-11 18:15:00,
2013-01-11 11:20:00,21.7,11.7,30.10,South,187,0.0,0.0,65,0.00,,,0.00,Wunderground v.1.12,2013-01-11 18:20:00,
2013-01-11 11:25:00,21.6,10.9,30.10,SSW,205,0.0,0.0,63,0.00,,,0.00,Wunderground v.1.12,2013-01-11 18:25:00,
2013-01-11 11:30:00,21.6,11.3,30.10,South,182,0.0,0.0,64,0.00,,,0.00,Wunderground v.1.12,2013-01-11 18:30:00,
2013-01-11 11:35:00,21.7,11.7,30.10,SW,228,0.0,0.0,65,0.00,,,0.00,Wunderground v.1.12,2013-01-11 18:35:00,
2013-01-11 11:40:00,21.9,11.9,30.10,South,182,0.0,0.0,65,0.00,,,0.00,Wunderground v.1.12,2013-01-11 18:40:00,
2013-01-11 11:45:00,22.2,11.9,30.10,SSW,213,0.0,0.0,64,0.00,,,0.00,Wunderground v.1.12,2013-01-11 18:45:00,
2013-01-11 11:50:00,22.3,11.6,30.10,WSW,251,0.0,0.0,63,0.00,,,0.00,Wunderground v.1.12,2013-01-11 18:50:00,
2013-01-11 11:55:00,22.5,12.1,30.10,WSW,241,0.0,0.0,64,0.00,,,0.00,Wunderground v.1.12,2013-01-11 18:55:00,
2013-01-11 12:00:00,22.5,11.8,30.10,South,179,0.0,0.0,63,0.00,,,0.00,Wunderground v.1.12,2013-01-11 19:00:00,
2013-01-11 12:05:00,22.6,12.2,30.09,South,174,0.0,0.0,64,0.00,,,0.00,Wunderground v.1.12,2013-01-11 19:05:00,
2013-01-11 12:15:00,22.7,11.6,30.09,SSE,164,0.0,0.0,62,0.00,,,0.00,Wunderground v.1.12,2013-01-11 19:15:00,
2013-01-11 12:20:00,22.8,11.7,30.09,SSW,204,0.0,0.0,62,0.00,,,0.00,Wunderground v.1.12,2013-01-11 19:20:00,
2013-01-11 12:25:00,22.7,10.9,30.09,SSE,158,0.0,0.0,60,0.00,,,0.00,Wunderground v.1.12,2013-01-11 19:25:00,
2013-01-11 12:30:00,22.7,12.0,30.09,SSE,162,0.0,0.0,63,0.00,,,0.00,Wunderground v.1.12,2013-01-11 19:30:00,
2013-01-11 12:35:00,22.7,11.6,30.09,South,171,0.0,0.0,62,0.00,,,0.00,Wunderground v.1.12,2013-01-11 19:35:00,
2013-01-11 12:45:00,22.8,11.7,30.09,South,189,0.0,0.0,62,0.00,,,0.00,Wunderground v.1.12,2013-01-11 19:45:00,
2013-01-11 12:50:00,22.8,11.3,30.09,SW,225,0.0,0.0,61,0.00,,,0.00,Wunderground v.1.12,2013-01-11 19:50:00,
2013-01-11 12:55:00,22.9,11.4,30.09,South,184,0.0,0.0,61,0.00,,,0.00,Wunderground v.1.12,2013-01-11 19:55:00,
2013-01-11 13:00:00,22.8,11.7,30.09,SSE,168,0.0,0.0,62,0.00,,,0.00,Wunderground v.1.12,2013-01-11 20:00:00,
2013-01-11 13:05:00,23.0,11.5,30.10,SSE,157,0.0,0.0,61,0.00,,,0.00,Wunderground v.1.12,2013-01-11 20:05:00,
2013-01-11 13:15:00,22.9,11.4,30.10,SSE,151,0.0,0.0,61,0.00,,,0.00,Wunderground v.1.12,2013-01-11 20:15:00,
2013-01-11 13:20:00,22.8,11.7,30.10,SSE,156,0.0,0.0,62,0.00,,,0.00,Wunderground v.1.12,2013-01-11 20:20:00,
2013-01-11 13:25:00,22.9,11.4,30.10,South,188,0.0,0.0,61,0.00,,,0.00,Wunderground v.1.12,2013-01-11 20:25:00,
2013-01-11 13:30:00,23.0,11.9,30.10,South,187,0.0,0.0,62,0.00,,,0.00,Wunderground v.1.12,2013-01-11 20:30:00,
2013-01-11 13:35:00,23.0,11.5,30.10,SSW,198,0.0,0.0,61,0.00,,,0.00,Wunderground v.1.12,2013-01-11 20:35:00,
2013-01-11 13:40:00,23.2,11.4,30.10,South,175,0.0,0.0,60,0.00,,,0.00,Wunderground v.1.12,2013-01-11 20:40:00,
2013-01-11 13:50:00,23.2,11.7,30.10,SSE,155,0.0,0.0,61,0.00,,,0.00,Wunderground v.1.12,2013-01-11 20:50:00,
2013-01-11 13:55:00,23.4,11.9,30.10,SSE,163,0.0,0.0,61,0.00,,,0.00,Wunderground v.1.12,2013-01-11 20:55:00,
2013-01-11 14:00:00,23.2,11.0,30.10,SSW,199,0.0,0.0,59,0.00,,,0.00,Wunderground v.1.12,2013-01-11 21:00:00,
2013-01-11 14:05:00,23.0,11.2,30.10,SSW,194,0.0,0.0,60,0.00,,,0.00,Wunderground v.1.12,2013-01-11 21:05:00,
2013-01-11 14:10:00,22.8,11.0,30.10,SSE,162,0.0,0.0,60,0.00,,,0.00,Wunderground v.1.12,2013-01-11 21:10:00,
2013-01-11 14:20:00,22.7,11.3,30.10,SSW,194,0.0,0.0,61,0.00,,,0.00,Wunderground v.1.12,2013-01-11 21:20:00,
2013-01-11 14:25:00,22.7,10.9,30.11,South,178,0.0,0.0,60,0.00,,,0.00,Wunderground v.1.12,2013-01-11 21:25:00,
2013-01-11 14:30:00,22.9,12.2,30.11,South,179,0.0,0.0,63,0.00,,,0.00,Wunderground v.1.12,2013-01-11 21:30:00,
2013-01-11 14:35:00,22.7,11.3,30.11,South,179,0.0,0.0,61,0.00,,,0.00,Wunderground v.1.12,2013-01-11 21:35:00,
2013-01-11 14:40:00,22.6,11.2,30.11,SW,214,0.0,0.0,61,0.00,,,0.00,Wunderground v.1.12,2013-01-11 21:40:00,
2013-01-11 14:45:00,22.6,10.4,30.11,SSW,210,0.0,0.0,59,0.00,,,0.00,Wunderground v.1.12,2013-01-11 21:45:00,
2013-01-11 14:55:00,22.3,10.5,30.12,South,184,0.0,0.0,60,0.00,,,0.00,Wunderground v.1.12,2013-01-11 21:55:00,
2013-01-11 15:00:00,22.4,10.6,30.12,SW,221,0.0,0.0,60,0.00,,,0.00,Wunderground v.1.12,2013-01-11 22:00:00,
2013-01-11 15:10:00,22.2,10.8,30.12,SSW,210,0.0,0.0,61,0.00,,,0.00,Wunderground v.1.12,2013-01-11 22:10:00,
2013-01-11 15:15:00,22.3,10.5,30.12,WSW,238,0.0,0.0,60,0.00,,,0.00,Wunderground v.1.12,2013-01-11 22:15:00,
2013-01-11 15:25:00,22.0,10.6,30.13,SW,214,0.0,0.0,61,0.00,,,0.00,Wunderground v.1.12,2013-01-11 22:25:00,
2013-01-11 15:30:00,22.1,11.1,30.13,South,182,0.0,0.0,62,0.00,,,0.00,Wunderground v.1.12,2013-01-11 22:30:00,
2013-01-11 15:35:00,21.8,11.1,30.13,South,190,0.0,0.0,63,0.00,,,0.00,Wunderground v.1.12,2013-01-11 22:35:00,
2013-01-11 15:40:00,21.9,11.2,30.13,South,191,0.0,0.0,63,0.00,,,0.00,Wunderground v.1.12,2013-01-11 22:40:00,
2013-01-11 15:45:00,21.8,11.5,30.13,South,191,0.0,0.0,64,0.00,,,0.00,Wunderground v.1.12,2013-01-11 22:45:00,
2013-01-11 15:55:00,21.5,11.2,30.13,South,191,0.0,0.0,64,0.00,,,0.00,Wunderground v.1.12,2013-01-11 22:55:00,
2013-01-11 16:00:00,21.6,12.0,30.14,South,191,0.0,0.0,66,0.00,,,0.00,Wunderground v.1.12,2013-01-11 23:00:00,
2013-01-11 16:05:00,21.4,10.7,30.13,South,191,0.0,0.0,63,0.00,,,0.00,Wunderground v.1.12,2013-01-11 23:05:00,
2013-01-11 16:10:00,21.4,12.1,30.14,South,191,0.0,0.0,67,0.00,,,0.00,Wunderground v.1.12,2013-01-11 23:10:00,
2013-01-11 16:15:00,21.2,11.6,30.14,SSW,192,0.0,0.0,66,0.00,,,0.00,Wunderground v.1.12,2013-01-11 23:15:00,
2013-01-11 16:20:00,21.1,11.8,30.14,South,191,0.0,0.0,67,0.00,,,0.00,Wunderground v.1.12,2013-01-11 23:20:00,
2013-01-11 16:25:00,21.2,12.3,30.14,South,191,0.0,0.0,68,0.00,,,0.00,Wunderground v.1.12,2013-01-11 23:25:00,
2013-01-11 16:30:00,21.1,12.5,30.14,South,191,0.0,0.0,69,0.00,,,0.00,Wunderground v.1.12,2013-01-11 23:30:00,
2013-01-11 16:35:00,21.3,12.7,30.12,N/A,-737280,0.0,0.0,69,0.00,,,0.00,Wunderground v.1.12,2013-01-11 23:35:00,
2013-01-11 16:40:00,20.9,12.6,30.14,South,191,0.0,0.0,70,0.00,,,0.00,Wunderground v.1.12,2013-01-11 23:40:00,
2013-01-11 16:50:00,20.7,12.8,30.14,South,191,0.0,0.0,71,0.00,,,0.00,Wunderground v.1.12,2013-01-11 23:50:00,
2013-01-11 17:00:00,20.6,13.0,30.14,South,191,0.0,0.0,72,0.00,,,0.00,Wunderground v.1.12,2013-01-12 00:00:00,
2013-01-11 17:05:00,20.5,12.9,30.14,East,82,0.0,0.0,72,0.00,,,0.00,Wunderground v.1.12,2013-01-12 00:05:00,
2013-01-11 17:10:00,20.1,12.5,30.14,East,82,0.0,0.0,72,0.00,,,0.00,Wunderground v.1.12,2013-01-12 00:10:00,
2013-01-11 17:15:00,19.8,12.2,30.14,East,82,0.0,0.0,72,0.00,,,0.00,Wunderground v.1.12,2013-01-12 00:15:00,
2013-01-11 17:20:00,19.6,12.0,30.14,East,82,0.0,0.0,72,0.00,,,0.00,Wunderground v.1.12,2013-01-12 00:20:00,
2013-01-11 17:25:00,19.3,12.1,30.14,East,82,0.0,0.0,73,0.00,,,0.00,Wunderground v.1.12,2013-01-12 00:25:00,
2013-01-11 17:30:00,19.1,11.9,30.14,East,82,0.0,0.0,73,0.00,,,0.00,Wunderground v.1.12,2013-01-12 00:30:00,
2013-01-11 17:35:00,18.9,11.7,30.14,East,82,0.0,0.0,73,0.00,,,0.00,Wunderground v.1.12,2013-01-12 00:35:00,
2013-01-11 17:40:00,18.6,11.4,30.15,East,82,0.0,0.0,73,0.00,,,0.00,Wunderground v.1.12,2013-01-12 00:40:00,
2013-01-11 17:45:00,18.4,11.2,30.15,East,82,0.0,0.0,73,0.00,,,0.00,Wunderground v.1.12,2013-01-12 00:45:00,
2013-01-11 17:50:00,18.2,11.0,30.15,East,82,0.0,0.0,73,0.00,,,0.00,Wunderground v.1.12,2013-01-12 00:50:00,
2013-01-11 17:55:00,17.9,10.7,30.15,East,82,0.0,0.0,73,0.00,,,0.00,Wunderground v.1.12,2013-01-12 00:55:00,
2013-01-11 18:05:00,17.5,-99.9,30.15,East,82,0.0,0.0,255,0.00,,,0.00,Wunderground v.1.12,2013-01-12 01:05:00,
2013-01-11 18:10:00,17.2,-99.9,30.15,East,82,0.0,0.0,255,0.00,,,0.00,Wunderground v.1.12,2013-01-12 01:10:00,
2013-01-11 18:15:00,17.0,-99.9,30.15,East,81,0.0,0.0,255,0.00,,,0.00,Wunderground v.1.12,2013-01-12 01:15:00,
2013-01-11 18:20:00,17.0,-99.9,30.15,NE,47,0.0,0.0,255,0.00,,,0.00,Wunderground v.1.12,2013-01-12 01:20:00,
2013-01-11 18:25:00,17.0,-99.9,30.15,NE,45,0.0,0.0,255,0.00,,,0.00,Wunderground v.1.12,2013-01-12 01:25:00,
2013-01-11 18:30:00,16.8,-99.9,30.15,NE,45,0.0,0.0,255,0.00,,,0.00,Wunderground v.1.12,2013-01-12 01:30:00,
2013-01-11 18:35:00,16.4,9.6,30.15,NE,37,0.0,0.0,74,0.00,,,0.00,Wunderground v.1.12,2013-01-12 01:35:00,
2013-01-11 18:40:00,16.3,9.5,30.15,NE,39,0.0,0.0,74,0.00,,,0.00,Wunderground v.1.12,2013-01-12 01:40:00,
2013-01-11 18:50:00,16.0,9.2,30.15,ENE,62,0.0,0.0,74,0.00,,,0.00,Wunderground v.1.12,2013-01-12 01:50:00,
2013-01-11 18:55:00,15.6,8.8,30.15,ENE,62,0.0,0.0,74,0.00,,,0.00,Wunderground v.1.12,2013-01-12 01:55:00,
2013-01-11 19:05:00,15.5,8.7,30.15,NE,50,0.0,0.0,74,0.00,,,0.00,Wunderground v.1.12,2013-01-12 02:05:00,
2013-01-11 19:10:00,15.3,8.8,30.15,NE,50,0.0,0.0,75,0.00,,,0.00,Wunderground v.1.12,2013-01-12 02:10:00,
2013-01-11 19:15:00,15.1,8.3,30.15,NE,50,0.0,0.0,74,0.00,,,0.00,Wunderground v.1.12,2013-01-12 02:15:00,
2013-01-11 19:20:00,14.9,7.8,30.15,NE,50,0.0,0.0,73,0.00,,,0.00,Wunderground v.1.12,2013-01-12 02:20:00,
2013-01-11 19:25:00,14.7,7.9,30.15,NE,44,0.0,0.0,74,0.00,,,0.00,Wunderground v.1.12,2013-01-12 02:25:00,
2013-01-11 19:30:00,14.4,7.6,30.16,NE,44,0.0,0.0,74,0.00,,,0.00,Wunderground v.1.12,2013-01-12 02:30:00,
2013-01-11 19:40:00,14.2,7.1,30.16,NE,45,0.0,0.0,73,0.00,,,0.00,Wunderground v.1.12,2013-01-12 02:40:00,
2013-01-11 19:45:00,14.2,7.4,30.15,NE,46,0.0,0.0,74,0.00,,,0.00,Wunderground v.1.12,2013-01-12 02:45:00,
2013-01-11 19:50:00,14.1,7.3,30.15,NE,44,0.0,0.0,74,0.00,,,0.00,Wunderground v.1.12,2013-01-12 02:50:00,
2013-01-11 19:55:00,13.9,7.4,30.15,NE,45,0.0,0.0,75,0.00,,,0.00,Wunderground v.1.12,2013-01-12 02:55:00,
2013-01-11 20:00:00,13.6,6.8,30.15,NE,45,0.0,0.0,74,0.00,,,0.00,Wunderground v.1.12,2013-01-12 03:00:00,
2013-01-11 20:05:00,14.1,7.3,30.14,N/A,-737280,0.0,0.0,74,0.00,,,0.00,Wunderground v.1.12,2013-01-12 03:05:00,
2013-01-11 20:15:00,13.0,6.3,30.16,NE,46,0.0,0.0,74,0.00,,,0.00,Wunderground v.1.12,2013-01-12 03:15:00,
2013-01-11 20:20:00,12.9,6.2,30.16,NE,46,0.0,0.0,74,0.00,,,0.00,Wunderground v.1.12,2013-01-12 03:20:00,
2013-01-11 20:25:00,12.6,5.9,30.16,NE,46,0.0,0.0,74,0.00,,,0.00,Wunderground v.1.12,2013-01-12 03:25:00,
2013-01-11 20:30:00,12.5,5.8,30.16,NE,50,0.0,0.0,74,0.00,,,0.00,Wunderground v.1.12,2013-01-12 03:30:00,
2013-01-11 20:35:00,12.4,5.4,30.16,NE,51,0.0,0.0,73,0.00,,,0.00,Wunderground v.1.12,2013-01-12 03:35:00,
2013-01-11 20:40:00,12.2,5.2,30.16,NE,48,0.0,0.0,73,0.00,,,0.00,Wunderground v.1.12,2013-01-12 03:40:00,
2013-01-11 20:45:00,11.9,4.9,30.15,NE,48,0.0,0.0,73,0.00,,,0.00,Wunderground v.1.12,2013-01-12 03:45:00,
2013-01-11 20:50:00,11.9,5.2,30.16,NE,48,0.0,0.0,74,0.00,,,0.00,Wunderground v.1.12,2013-01-12 03:50:00,
2013-01-11 20:55:00,11.8,4.8,30.16,NE,48,0.0,0.0,73,0.00,,,0.00,Wunderground v.1.12,2013-01-12 03:55:00,
2013-01-11 21:00:00,11.1,4.1,30.16,NE,48,0.0,0.0,73,0.00,,,0.00,Wunderground v.1.12,2013-01-12 04:00:00,
2013-01-11 21:05:00,11.0,4.3,30.16,NE,49,0.0,0.0,74,0.00,,,0.00,Wunderground v.1.12,2013-01-12 04:05:00,
2013-01-11 21:15:00,10.9,3.9,30.16,NE,45,0.0,0.0,73,0.00,,,0.00,Wunderground v.1.12,2013-01-12 04:15:00,
2013-01-11 21:20:00,10.6,3.6,30.16,NE,46,0.0,0.0,73,0.00,,,0.00,Wunderground v.1.12,2013-01-12 04:20:00,
2013-01-11 21:25:00,10.5,3.6,30.16,NE,46,0.0,0.0,73,0.00,,,0.00,Wunderground v.1.12,2013-01-12 04:25:00,
2013-01-11 21:30:00,10.3,3.7,30.16,NE,43,0.0,0.0,74,0.00,,,0.00,Wunderground v.1.12,2013-01-12 04:30:00,
2013-01-11 21:35:00,10.3,3.7,30.16,NE,50,0.0,0.0,74,0.00,,,0.00,Wunderground v.1.12,2013-01-12 04:35:00,
2013-01-11 21:40:00,10.0,3.4,30.16,NE,50,0.0,0.0,74,0.00,,,0.00,Wunderground v.1.12,2013-01-12 04:40:00,
2013-01-11 21:50:00,10.2,3.3,30.17,NE,47,0.0,0.0,73,0.00,,,0.00,Wunderground v.1.12,2013-01-12 04:50:00,
2013-01-11 21:55:00,10.0,3.4,30.17,NE,47,0.0,0.0,74,0.00,,,0.00,Wunderground v.1.12,2013-01-12 04:55:00,
2013-01-11 22:05:00,9.6,3.0,30.17,NE,47,0.0,0.0,74,0.00,,,0.00,Wunderground v.1.12,2013-01-12 05:05:00,
2013-01-11 22:10:00,9.7,3.1,30.17,NE,47,0.0,0.0,74,0.00,,,0.00,Wunderground v.1.12,2013-01-12 05:10:00,
2013-01-11 22:15:00,9.4,2.8,30.17,NE,47,0.0,0.0,74,0.00,,,0.00,Wunderground v.1.12,2013-01-12 05:15:00,
2013-01-11 22:25:00,9.5,2.6,30.17,NE,47,0.0,0.0,73,0.00,,,0.00,Wunderground v.1.12,2013-01-12 05:25:00,
2013-01-11 22:30:00,9.4,3.1,30.17,NE,47,0.0,0.0,75,0.00,,,0.00,Wunderground v.1.12,2013-01-12 05:30:00,
2013-01-11 22:35:00,9.5,2.9,30.17,NE,47,0.0,0.0,74,0.00,,,0.00,Wunderground v.1.12,2013-01-12 05:35:00,
2013-01-11 22:40:00,9.4,3.1,30.17,NE,47,0.0,0.0,75,0.00,,,0.00,Wunderground v.1.12,2013-01-12 05:40:00,
2013-01-11 22:45:00,9.1,2.8,30.17,NE,47,0.0,0.0,75,0.00,,,0.00,Wunderground v.1.12,2013-01-12 05:45:00,
2013-01-11 22:55:00,8.7,2.1,30.17,NE,47,0.0,0.0,74,0.00,,,0.00,Wunderground v.1.12,2013-01-12 05:55:00,
2013-01-11 23:00:00,8.4,1.5,30.16,NE,47,0.0,0.0,73,0.00,,,0.00,Wunderground v.1.12,2013-01-12 06:00:00,
2013-01-11 23:05:00,8.4,1.5,30.16,NE,50,0.0,0.0,73,0.00,,,0.00,Wunderground v.1.12,2013-01-12 06:05:00,
2013-01-11 23:10:00,8.3,1.4,30.16,East,79,0.0,0.0,73,0.00,,,0.00,Wunderground v.1.12,2013-01-12 06:10:00,
2013-01-11 23:15:00,8.0,1.1,30.16,ENE,78,0.0,0.0,73,0.00,,,0.00,Wunderground v.1.12,2013-01-12 06:15:00,
2013-01-11 23:25:00,8.0,1.4,30.16,NE,54,0.0,0.0,74,0.00,,,0.00,Wunderground v.1.12,2013-01-12 06:25:00,
2013-01-11 23:30:00,8.0,1.4,30.16,NE,54,0.0,0.0,74,0.00,,,0.00,Wunderground v.1.12,2013-01-12 06:30:00,
2013-01-11 23:35:00,8.2,1.6,30.15,N/A,-737280,0.0,0.0,74,0.00,,,0.00,Wunderground v.1.12,2013-01-12 06:35:00,
2013-01-11 23:40:00,8.2,1.6,30.17,NE,54,0.0,0.0,74,0.00,,,0.00,Wunderground v.1.12,2013-01-12 06:40:00,
2013-01-11 23:45:00,8.0,1.7,30.17,NE,54,0.0,0.0,75,0.00,,,0.00,Wunderground v.1.12,2013-01-12 06:45:00,
2013-01-11 23:50:00,8.1,1.8,30.17,NE,54,0.0,0.0,75,0.00,,,0.00,Wunderground v.1.12,2013-01-12 06:50:00,